Weather in Garrisberg

United States     40°16′21″N   76°51′57″W
temp.,
°C
wind,
m/s
gust,
m/s
humid.,
%
clouds,
%
prec.,
mm/h
press.,
hPa
HPBL,
m
28 september, tue
tue2823:00+15ssw22806 0.0 101213
02:00+14wsw228777 0.8 101114
05:00+14nw228782 1.3 101116
08:00+15sw239195 2.4 101290
11:00+21wsw368043 0.3 1011700
14:00+20nw3988100 0.9 1011581
17:00+19wnw3789100 0.4 1010375
20:00+16n4119191 0.8 1012382
29 september, wed
wed2923:00+13n22924 0.0 101421
02:00+10nnw37915 0.0 1015157
05:00+9nnw25925 0.0 1016106
08:00+10nw26885 0.0 1018180
11:00+16nnw46620 0.0 1018859
14:00+18nnw46510 0.0 10171424
17:00+19nnw26588 0.0 10161692
20:00+13n00711 0.0 101711
30 september, thu
thu3023:00+11n11800 0.0 101910
02:00+9nw22880 0.0 101911
05:00+8nw22900 0.0 102022
08:00+9nnw310860 0.0 1022393
11:00+14n57601 0.0 10221298
14:00+15nnw565839 0.0 10211473
17:00+16n46620 0.0 10211153
20:00+9nne22770 0.0 102329
1 october, fri
fri123:00+7nnw11830 0.0 102410
02:00+6nw22850 0.0 102511
05:00+6nw22890 0.0 102511
08:00+7nw11852 0.0 102637
11:00+14nw126188 0.0 1026564
14:00+17wnw23559 0.0 10231003
17:00+18w23595 0.0 10221054
20:00+12ese1180100 0.0 102210
2 october, sat
sat223:00+10s118638 0.0 102210
02:00+9wsw118999 0.0 102310
05:00+9ssw009145 0.0 102210
08:00+10e0089100 0.0 102215
11:00+17s127056 0.0 1022407
14:00+20ssw236671 0.0 1019806
17:00+21ssw237196 0.0 1017837
20:00+17wsw1188100 0.5 101811